When you browse on this site, cookies collect data to enhance your experience and personalize the content and advertising you see.
Visit our Privacy Policy to learn more. By continuing to use the site, you agree to this use of cookies and data.
  • In Austria
  • List of Countries
  • For 7 days
  • Water Temperature
  • Satellite Maps
  • Weather Map
  • News
  • Weather Widgets
  • user-avatar
    Login

    Hourly Weather Tarin Kowt

    Today, 24 April, Wednesday

    Time Temperature Precipitation Wind Pressure Humidity
    00:00 +22°C° 0 mm 3 mps 616 mmHg 38%
    01:00 +21°C° 0 mm 2 mps 616 mmHg 40%
    02:00 +20°C° 0 mm 3 mps 615 mmHg 41%
    03:00 +20°C° 0 mm 3 mps 615 mmHg 41%
    04:00 +20°C° 0 mm 4 mps 615 mmHg 41%
    05:00 +20°C° 0 mm 4 mps 615 mmHg 39%
    06:00 +20°C° 0 mm 5 mps 616 mmHg 38%
    07:00 +21°C° 0 mm 5 mps 616 mmHg 37%
    08:00 +22°C° 0 mm 6 mps 617 mmHg 32%
    09:00 +23°C° 0 mm 7 mps 617 mmHg 28%
    10:00 +24°C° 0 mm 7 mps 618 mmHg 23%
    11:00 +24°C° 0 mm 8 mps 617 mmHg 22%
    12:00 +24°C° 0 mm 9 mps 617 mmHg 20%
    13:00 +24°C° 0 mm 9 mps 617 mmHg 19%
    14:00 +23°C° 0 mm 9 mps 617 mmHg 18%
    15:00 +23°C° 0 mm 9 mps 617 mmHg 18%
    16:00 +22°C° 0 mm 9 mps 617 mmHg 18%
    17:00 +21°C° 0 mm 7 mps 617 mmHg 20%
    18:00 +20°C° 0 mm 6 mps 617 mmHg 21%
    19:00 +18°C° 0 mm 4 mps 617 mmHg 23%
    20:00 +17°C° 0 mm 3 mps 617 mmHg 25%
    21:00 +17°C° 0 mm 3 mps 617 mmHg 27%
    22:00 +16°C° 0 mm 2 mps 617 mmHg 30%
    23:00 +15°C° 0 mm 2 mps 617 mmHg 30%

    Tomorrow, 25 April, Thursday

    Time Temperature Precipitation Wind Pressure Humidity
    00:00 +15°C° 0 mm 2 mps 617 mmHg 31%
    01:00 +14°C° 0 mm 1 mps 616 mmHg 32%
    02:00 +13°C° 0 mm 1 mps 616 mmHg 32%
    03:00 +13°C° 0 mm 1 mps 616 mmHg 33%
    04:00 +12°C° 0 mm 1 mps 616 mmHg 33%
    05:00 +13°C° 0 mm 1 mps 617 mmHg 29%
    06:00 +14°C° 0 mm 1 mps 617 mmHg 25%
    07:00 +15°C° 0 mm 1 mps 618 mmHg 21%
    08:00 +16°C° 0 mm 1 mps 619 mmHg 20%
    09:00 +17°C° 0 mm 2 mps 619 mmHg 18%
    10:00 +18°C° 0 mm 3 mps 620 mmHg 17%
    11:00 +19°C° 0 mm 3 mps 620 mmHg 17%
    12:00 +20°C° 0 mm 4 mps 620 mmHg 16%
    13:00 +20°C° 0 mm 5 mps 620 mmHg 16%
    14:00 +20°C° 0 mm 5 mps 619 mmHg 16%
    15:00 +20°C° 0 mm 5 mps 619 mmHg 16%
    16:00 +20°C° 0 mm 5 mps 619 mmHg 16%
    17:00 +19°C° 0 mm 4 mps 619 mmHg 19%
    18:00 +18°C° 0 mm 3 mps 618 mmHg 22%
    19:00 +17°C° 0 mm 2 mps 618 mmHg 24%
    20:00 +17°C° 0 mm 2 mps 618 mmHg 27%
    21:00 +16°C° 0 mm 1 mps 618 mmHg 29%
    22:00 +15°C° 0 mm 1 mps 618 mmHg 32%
    23:00 +15°C° 0 mm 1 mps 618 mmHg 34%

    Day after tomorrow, 26 April, Friday

    Time Temperature Precipitation Wind Pressure Humidity
    00:00 +13°C° 0 mm 0 mps 618 mmHg 36%
    01:00 +12°C° 0 mm 0 mps 617 mmHg 38%
    02:00 +12°C° 0 mm 0 mps 617 mmHg 38%
    03:00 +12°C° 0 mm 0 mps 616 mmHg 38%
    04:00 +11°C° 0 mm 0 mps 616 mmHg 37%
    05:00 +12°C° 0 mm 0 mps 617 mmHg 33%
    06:00 +13°C° 0 mm 0 mps 618 mmHg 28%
    07:00 +15°C° 0 mm 1 mps 618 mmHg 24%
    08:00 +16°C° 0 mm 1 mps 619 mmHg 22%
    09:00 +19°C° 0 mm 1 mps 619 mmHg 20%
    10:00 +20°C° 0 mm 1 mps 620 mmHg 18%
    11:00 +21°C° 0 mm 1 mps 620 mmHg 17%
    12:00 +21°C° 0 mm 2 mps 619 mmHg 16%
    13:00 +21°C° 0 mm 3 mps 619 mmHg 14%
    14:00 +22°C° 0 mm 4 mps 619 mmHg 15%
    15:00 +22°C° 0 mm 4 mps 619 mmHg 15%
    16:00 +22°C° 0 mm 4 mps 618 mmHg 15%
    17:00 +21°C° 0 mm 4 mps 618 mmHg 18%
    18:00 +20°C° 0 mm 3 mps 618 mmHg 21%
    19:00 +19°C° 0 mm 2 mps 618 mmHg 24%
    20:00 +19°C° 0 mm 1 mps 618 mmHg 27%
    21:00 +18°C° 0 mm 1 mps 618 mmHg 29%
    22:00 +16°C° 0 mm 0 mps 618 mmHg 32%
    23:00 +16°C° 0 mm 1 mps 618 mmHg 32%

    27 April, Saturday

    Time Temperature Precipitation Wind Pressure Humidity
    00:00 +16°C° 0 mm 1 mps 617 mmHg 32%
    01:00 +15°C° 0 mm 1 mps 617 mmHg 32%
    02:00 +15°C° 0 mm 1 mps 617 mmHg 32%
    03:00 +15°C° 0 mm 1 mps 617 mmHg 32%
    04:00 +14°C° 0 mm 1 mps 616 mmHg 32%
    05:00 +15°C° 0 mm 1 mps 617 mmHg 29%
    06:00 +16°C° 0 mm 1 mps 618 mmHg 26%
    07:00 +18°C° 0 mm 1 mps 619 mmHg 23%
    08:00 +20°C° 0 mm 1 mps 619 mmHg 21%
    09:00 +21°C° 0 mm 1 mps 619 mmHg 19%
    10:00 +22°C° 0 mm 1 mps 620 mmHg 18%
    11:00 +23°C° 0 mm 2 mps 620 mmHg 17%
    12:00 +22°C° 0 mm 3 mps 619 mmHg 17%
    13:00 +23°C° 0 mm 4 mps 619 mmHg 16%
    14:00 +23°C° 0 mm 4 mps 619 mmHg 16%
    15:00 +23°C° 0 mm 5 mps 619 mmHg 16%
    16:00 +23°C° 0 mm 5 mps 618 mmHg 16%
    17:00 +22°C° 0 mm 4 mps 618 mmHg 19%
    18:00 +21°C° 0 mm 3 mps 618 mmHg 22%
    19:00 +20°C° 0 mm 2 mps 618 mmHg 25%
    20:00 +19°C° 0 mm 2 mps 618 mmHg 27%
    21:00 +18°C° 0 mm 2 mps 618 mmHg 29%
    22:00 +19°C° 0 mm 1 mps 618 mmHg 31%
    23:00 +18°C° 0 mm 1 mps 618 mmHg 33%

    28 April, Sunday

    Time Temperature Precipitation Wind Pressure Humidity
    00:00 +16°C° 0 mm 1 mps 617 mmHg 34%
    01:00 +16°C° 0 mm 1 mps 617 mmHg 36%
    02:00 +15°C° 0 mm 1 mps 616 mmHg 37%
    03:00 +15°C° 0 mm 1 mps 616 mmHg 38%
    04:00 +14°C° 0 mm 1 mps 616 mmHg 39%
    05:00 +15°C° 0 mm 1 mps 617 mmHg 34%
    06:00 +16°C° 0 mm 1 mps 617 mmHg 30%
    07:00 +18°C° 0 mm 1 mps 618 mmHg 26%
    08:00 +19°C° 0 mm 1 mps 619 mmHg 23%
    09:00 +20°C° 0 mm 1 mps 619 mmHg 21%
    10:00 +21°C° 0 mm 1 mps 619 mmHg 19%
    11:00 +21°C° 0 mm 2 mps 619 mmHg 17%
    12:00 +22°C° 0 mm 3 mps 619 mmHg 15%
    13:00 +23°C° 0 mm 4 mps 619 mmHg 14%
    14:00 +23°C° 0 mm 4 mps 618 mmHg 14%
    15:00 +23°C° 0 mm 4 mps 618 mmHg 13%
    16:00 +23°C° 0 mm 4 mps 618 mmHg 13%
    17:00 +22°C° 0 mm 3 mps 618 mmHg 16%
    18:00 +21°C° 0 mm 3 mps 617 mmHg 18%
    19:00 +20°C° 0 mm 2 mps 617 mmHg 21%
    20:00 +19°C° 0 mm 2 mps 617 mmHg 23%
    21:00 +19°C° 0 mm 1 mps 617 mmHg 26%
    22:00 +18°C° 0 mm 1 mps 617 mmHg 28%
    23:00 +18°C° 0 mm 1 mps 617 mmHg 30%

    29 April, Monday

    Time Temperature Precipitation Wind Pressure Humidity
    00:00 +16°C° 0 mm 1 mps 616 mmHg 32%
    01:00 +14°C° 0 mm 0 mps 615 mmHg 34%
    02:00 +14°C° 0 mm 0 mps 615 mmHg 33%
    03:00 +15°C° 0 mm 1 mps 615 mmHg 32%
    04:00 +15°C° 0 mm 1 mps 615 mmHg 32%
    05:00 +16°C° 0 mm 1 mps 615 mmHg 28%
    06:00 +18°C° 0 mm 1 mps 616 mmHg 24%
    07:00 +19°C° 0 mm 1 mps 617 mmHg 20%
    08:00 +20°C° 0 mm 1 mps 617 mmHg 19%
    09:00 +21°C° 0 mm 1 mps 618 mmHg 17%
    10:00 +22°C° 0 mm 1 mps 618 mmHg 16%
    11:00 +22°C° 0 mm 1 mps 618 mmHg 15%
    12:00 +22°C° 0 mm 1 mps 617 mmHg 15%
    13:00 +23°C° 0 mm 1 mps 617 mmHg 15%
    14:00 +23°C° 0 mm 2 mps 617 mmHg 15%
    15:00 +22°C° 0 mm 3 mps 617 mmHg 16%
    16:00 +23°C° 0 mm 4 mps 617 mmHg 16%
    17:00 +21°C° 0 mm 3 mps 616 mmHg 19%
    18:00 +20°C° 0 mm 3 mps 616 mmHg 22%
    19:00 +19°C° 0 mm 3 mps 616 mmHg 26%
    20:00 +19°C° 0 mm 2 mps 616 mmHg 28%
    21:00 +20°C° 0 mm 1 mps 616 mmHg 29%
    22:00 +17°C° 0 mm 0 mps 616 mmHg 31%
    23:00 +19°C° 0 mm 1 mps 615 mmHg 33%
    Show more